Flag for Germany Weather past 2 weeks in Ingelheim am Rhein, Rhineland-Palatinate, Germany

Now
87 °F

Sunny.


Feels Like: 90 °F
Forecast: 66 / 89 °F
Wind: 3 mph from South

Location: Wiesbaden Airport

Current Time: Aug 30, 2015 at 9:07:31 PM

Latest Report: Aug 30, 2015 at 7:58 PM


Visibility: N/A

Pressure: 29.98 "Hg

Humidity: 50%

Dew point: 67 °F

Location of Ingelheim am RheinLocation

Historic Weather in Ingelheim am Rhein — Graph

°F

Ingelheim am Rhein temperature yesterday

Maximum temperature yesterday: 85 °F (at 5:58 PM)
Minimum temperature yesterday: 56 °F (at 4:58 AM)
Average temperature yesterday: 71 °F

Past Weeks' High & Low Weather Summary

 TemperatureHumidityPressure
High91 °F (Aug 30, 5:58 PM)100% (Aug 23, 8:58 PM)30.29 "Hg (Aug 23, 8:58 PM)
Low51 °F (Aug 19, 5:58 AM)24% (Aug 22, 4:58 PM)29.66 "Hg (Aug 23, 6:58 PM)
Average67 °F71%30.00 "Hg
* Reported Aug 15 7:58 PM — Aug 30 7:58 PM, Ingelheim am Rhein, Weather by CustomWeather, © 2015

Note: Actual official high and low records may vary slightly from our data, if they occured in-between our weather recording intervals... More about our weather records

Advertising

Ingelheim am Rhein weather history for previous 24 hours

 ConditionsComfort  
Time TempWeatherWind HumidityBarometerVisibility
7:58 PM
Sun, Aug 30
87 °FSunny.3 mph50%29.98 "HgN/A
6:58 PM91 °FSunny.6 mph44%29.97 "HgN/A
5:58 PM91 °FSunny.3 mph41%29.98 "HgN/A
4:58 PM91 °FSunny.8 mph44%29.98 "HgN/A
3:58 PM90 °FSunny.8 mph45%30.00 "HgN/A
2:58 PM90 °FSunny.6 mph46%30.01 "HgN/A
1:58 PM86 °FSunny.8 mph59%30.03 "HgN/A
12:58 PM84 °FSunny.6 mph62%30.05 "HgN/A
11:58 AM82 °FSunny.5 mph62%30.06 "HgN/A
10:58 AM79 °FSunny.3 mph71%30.07 "HgN/A
9:58 AM76 °FSunny.2 mph78%30.08 "HgN/A
8:58 AM73 °FSunny.No wind83%30.08 "HgN/A
7:58 AM68 °FSunny.No wind100%30.07 "HgN/A
6:58 AM65 °FClear.2 mph100%30.06 "HgN/A
5:58 AM67 °FPassing clouds.No wind96%30.05 "HgN/A
4:58 AM68 °FClear.No wind94%30.06 "HgN/A
3:58 AM70 °FClear.1 mph88%30.06 "HgN/A
2:58 AM74 °FClear.3 mph80%30.06 "HgN/A
1:58 AM74 °FClear.6 mph78%30.08 "HgN/A
12:58 AM75 °FPassing clouds.2 mph76%30.09 "HgN/A
11:58 PM
Sat, Aug 29
77 °FClear.3 mph69%30.09 "HgN/A
10:58 PM77 °FClear.5 mph69%30.09 "HgN/A
9:58 PM77 °FPassing clouds.3 mph69%30.10 "HgN/A
Weather by CustomWeather, © 2015

See weather overviewHow to use our weather pages